Flag for Ethiopia Weather past 2 weeks in Addis Ababa, Ethiopia

Now
63 °F

Partly cloudy.


Feels Like: 63 °F
Forecast: 47 / 68 °F
Wind: 5 mph from Northwest

Location: Addis Ababa Airport

Current Time: Sep 23, 2014 at 10:03:09 PM

Latest Report: Sep 23, 2014 at 8:00 PM


Visibility: N/A

Pressure: 30.30 "Hg

Humidity: 73%

Dew point: 54 °F

Location of Addis AbabaLocation

Historic Weather in Addis Ababa — Graph

°F

Addis Ababa temperature yesterday

Maximum temperature yesterday: 70 °F (at 2:00 PM)
Minimum temperature yesterday: 57 °F (at 7:00 AM)
Average temperature yesterday: 63 °F

Past Weeks' High & Low Weather Summary

 TemperatureHumidityPressure
High73 °F (Sep 23, 2:00 PM)88% (Sep 8, 11:00 PM)30.42 "Hg (Sep 8, 11:00 PM)
Low54 °F (Sep 12, 5:00 AM)44% (Sep 23, 2:00 PM)30.24 "Hg (Sep 22, 4:00 PM)
Average62 °F76%30.33 "Hg
* Reported Sep 8 8:00 PM — Sep 23 8:00 PM, Addis Ababa, Weather by CustomWeather, © 2014

Note: Actual official high and low records may vary slightly from our data, if they occured in-between our weather recording intervals... More about our weather records

Advertising

Addis Ababa weather history for previous 24 hours

 ConditionsComfort  
Time TempWeatherWind HumidityBarometerVisibility
8:00 PM
Sep 23
63 °FPartly cloudy.5 mph73%30.30 "HgN/A
7:00 PM63 °FPartly cloudy.9 mph73%30.30 "HgN/A
6:00 PM63 °FBroken clouds.7 mph73%30.30 "HgN/A
5:00 PM63 °FPartly sunny.7 mph73%30.27 "HgN/A
3:00 PM64 °FThunderstorms. Passing clouds.12 mph73%30.27 "Hg5 mi
2:00 PM73 °FPartly sunny.12 mph44%30.24 "Hg1 mi
1:00 PM70 °FPartly sunny.9 mph60%30.30 "HgN/A
12:00 PM68 °FPartly sunny.12 mph69%30.33 "HgN/A
11:00 AM66 °FPartly sunny.5 mph68%30.33 "HgN/A
10:00 AM64 °FPartly sunny.7 mph73%30.36 "HgN/A
9:00 AM63 °FScattered clouds.9 mph73%30.33 "HgN/A
8:00 AM59 °FPartly sunny.2 mph77%30.33 "HgN/A
7:00 AM57 °FScattered clouds.5 mph82%30.30 "HgN/A
6:00 AM59 °FPassing clouds.No wind72%30.27 "HgN/A
5:00 AM57 °FPassing clouds.5 mph77%30.24 "HgN/A
4:00 AM57 °FPassing clouds.2 mph77%30.24 "HgN/A
3:00 AM59 °FPassing clouds.2 mph72%30.24 "HgN/A
2:00 AM61 °FPassing clouds.2 mph77%30.27 "HgN/A
1:00 AM63 °FPassing clouds.7 mph73%30.27 "HgN/A
12:00 AM63 °FPassing clouds.5 mph73%30.30 "HgN/A
11:00 PM
Sep 22
63 °FPassing clouds.5 mph73%30.33 "HgN/A
10:00 PM63 °FPassing clouds.2 mph77%30.30 "HgN/A
Weather by CustomWeather, © 2014

See weather overviewHow to use our weather pages